﻿,,Water Temp.Logger@S109B,Water Temp.Logger@S109B,Water Temp.Logger@S109B,Water Temp.Logger@S109B,Water Temp.Field Visits@S109B,Water Temp.Field Visits@S109B,Water Temp.Field Visits@S109B,Water Temp.Field Visits@S109B
mm/dd/yyyy,HH:MM:SS,°C,,,,°C,,,
Date,Time,Value,Grade,Approval,Interpolation Code,Value,Grade,Approval,Interpolation Code
06/05/2015,12:29:46,,,,,19.0722222222225,41,3,7
06/10/2015,12:19:34,,,,,20.8888888888891,41,3,7
06/18/2015,08:14:59,,1,0,1,,,,
06/18/2015,08:15:00,,1,0,1,,,,
06/18/2015,08:30:00,,1,0,1,,,,
06/18/2015,08:45:00,,1,0,1,,,,
06/18/2015,09:00:00,,1,0,1,17.6,41,3,7
06/18/2015,09:16:38,,,,,17.7500000000003,41,3,7
06/18/2015,10:45:00,,1,0,1,,,,
06/18/2015,11:00:00,,1,0,1,,,,
06/18/2015,11:15:00,,1,0,1,,,,
06/18/2015,11:30:00,18.27667,1,0,1,,,,
06/18/2015,11:45:00,18.46526,1,0,1,,,,
06/18/2015,12:00:00,18.66334,1,0,1,,,,
06/18/2015,12:15:00,18.90043,1,0,1,,,,
06/18/2015,12:30:00,19.11866,1,0,1,,,,
06/18/2015,12:45:00,19.32962,1,0,1,,,,
06/18/2015,13:00:00,19.52694,1,0,1,,,,
06/18/2015,13:15:00,19.72011,1,0,1,,,,
06/18/2015,13:30:00,19.92729,1,0,1,,,,
06/18/2015,13:45:00,20.14133,1,0,1,,,,
06/18/2015,14:00:00,20.33475,1,0,1,,,,
06/18/2015,14:15:00,20.49468,1,0,1,,,,
06/18/2015,14:30:00,20.62177,1,0,1,,,,
06/18/2015,14:45:00,20.76418,1,0,1,,,,
06/18/2015,15:00:00,20.89226,1,0,1,,,,
06/18/2015,15:15:00,21.02749,1,0,1,,,,
06/18/2015,15:30:00,21.15198,1,0,1,,,,
06/18/2015,15:45:00,21.26953,1,0,1,,,,
06/18/2015,16:00:00,21.37653,1,0,1,,,,
06/18/2015,16:15:00,21.44958,1,0,1,,,,
06/18/2015,16:30:00,21.54444,1,0,1,,,,
06/18/2015,16:45:00,21.63252,1,0,1,,,,
06/18/2015,17:00:00,21.67672,1,0,1,,,,
06/18/2015,17:15:00,21.72247,1,0,1,,,,
06/18/2015,17:30:00,21.75196,1,0,1,,,,
06/18/2015,17:45:00,21.76054,1,0,1,,,,
06/18/2015,18:00:00,21.77073,1,0,1,,,,
06/18/2015,18:15:00,21.77305,1,0,1,,,,
06/18/2015,18:30:00,21.76096,1,0,1,,,,
06/18/2015,18:45:00,21.74114,1,0,1,,,,
06/18/2015,19:00:00,21.70024,1,0,1,,,,
06/18/2015,19:15:00,21.6634,1,0,1,,,,
06/18/2015,19:30:00,21.61296,1,0,1,,,,
06/18/2015,19:45:00,21.5492,1,0,1,,,,
06/18/2015,20:00:00,21.48323,1,0,1,,,,
06/18/2015,20:15:00,21.40492,1,0,1,,,,
06/18/2015,20:30:00,21.32291,1,0,1,,,,
06/18/2015,20:45:00,21.22675,1,0,1,,,,
06/18/2015,21:00:00,21.12633,1,0,1,,,,
06/18/2015,21:15:00,21.02693,1,0,1,,,,
06/18/2015,21:30:00,20.92411,1,0,1,,,,
06/18/2015,21:45:00,20.80798,1,0,1,,,,
06/18/2015,22:00:00,20.69524,1,0,1,,,,
06/18/2015,22:15:00,20.58555,1,0,1,,,,
06/18/2015,22:30:00,20.46396,1,0,1,,,,
06/18/2015,22:45:00,20.34721,1,0,1,,,,
06/18/2015,23:00:00,20.22383,1,0,1,,,,
06/18/2015,23:15:00,20.11568,1,0,1,,,,
06/18/2015,23:30:00,20.00072,1,0,1,,,,
06/18/2015,23:45:00,19.88708,1,0,1,,,,
06/19/2015,00:00:00,19.76746,1,0,1,,,,
06/19/2015,00:15:00,19.6564,1,0,1,,,,
06/19/2015,00:30:00,19.54479,1,0,1,,,,
06/19/2015,00:45:00,19.42824,1,0,1,,,,
06/19/2015,01:00:00,19.3206,1,0,1,,,,
06/19/2015,01:15:00,19.21224,1,0,1,,,,
06/19/2015,01:30:00,19.11063,1,0,1,,,,
06/19/2015,01:45:00,19.01025,1,0,1,,,,
06/19/2015,02:00:00,18.90895,1,0,1,,,,
06/19/2015,02:15:00,18.80608,1,0,1,,,,
06/19/2015,02:30:00,18.70471,1,0,1,,,,
06/19/2015,02:45:00,18.59536,1,0,1,,,,
06/19/2015,03:00:00,18.4968,1,0,1,,,,
06/19/2015,03:15:00,18.39995,1,0,1,,,,
06/19/2015,03:30:00,18.30762,1,0,1,,,,
06/19/2015,03:45:00,18.21698,1,0,1,,,,
06/19/2015,04:00:00,18.14077,1,0,1,,,,
06/19/2015,04:15:00,18.06026,1,0,1,,,,
06/19/2015,04:30:00,17.98415,1,0,1,,,,
06/19/2015,04:45:00,17.90647,1,0,1,,,,
06/19/2015,05:00:00,17.82909,1,0,1,,,,
06/19/2015,05:15:00,17.74072,1,0,1,,,,
06/19/2015,05:30:00,17.66618,1,0,1,,,,
06/19/2015,05:45:00,17.59871,1,0,1,,,,
06/19/2015,06:00:00,17.51965,1,0,1,,,,
06/19/2015,06:15:00,17.44586,1,0,1,,,,
06/19/2015,06:30:00,17.37345,1,0,1,,,,
06/19/2015,06:45:00,17.30769,1,0,1,,,,
06/19/2015,07:00:00,17.24626,1,0,1,,,,
06/19/2015,07:15:00,17.18784,1,0,1,,,,
06/19/2015,07:30:00,17.13149,1,0,1,,,,
06/19/2015,07:45:00,17.08585,1,0,1,,,,
06/19/2015,08:00:00,17.05549,1,0,1,,,,
06/19/2015,08:15:00,17.03086,1,0,1,,,,
06/19/2015,08:30:00,17.02073,1,0,1,,,,
06/19/2015,08:45:00,17.02357,1,0,1,,,,
06/19/2015,09:00:00,17.05816,1,0,1,,,,
06/19/2015,09:15:00,17.10574,1,0,1,,,,
06/19/2015,09:30:00,17.18082,1,0,1,,,,
06/19/2015,09:45:00,17.27476,1,0,1,,,,
06/19/2015,10:00:00,17.38033,1,0,1,,,,
06/19/2015,10:15:00,17.49835,1,0,1,,,,
06/19/2015,10:30:00,17.6277,1,0,1,,,,
06/19/2015,10:45:00,17.76931,1,0,1,,,,
06/19/2015,11:00:00,17.93058,1,0,1,,,,
06/19/2015,11:15:00,18.09764,1,0,1,,,,
06/19/2015,11:30:00,18.27514,1,0,1,,,,
06/19/2015,11:45:00,18.43013,1,0,1,,,,
06/19/2015,12:00:00,18.54882,1,0,1,,,,
06/19/2015,12:15:00,18.65819,1,0,1,,,,
06/19/2015,12:30:00,18.76773,1,0,1,,,,
06/19/2015,12:45:00,18.9231,1,0,1,,,,
06/19/2015,13:00:00,19.11073,1,0,1,,,,
06/19/2015,13:15:00,19.30923,1,0,1,,,,
06/19/2015,13:30:00,19.48332,1,0,1,,,,
06/19/2015,13:45:00,19.64749,1,0,1,,,,
06/19/2015,14:00:00,19.81221,1,0,1,,,,
06/19/2015,14:15:00,19.97149,1,0,1,,,,
06/19/2015,14:30:00,20.1244,1,0,1,,,,
06/19/2015,14:45:00,20.27775,1,0,1,,,,
06/19/2015,15:00:00,20.42292,1,0,1,,,,
06/19/2015,15:15:00,20.55673,1,0,1,,,,
06/19/2015,15:30:00,20.68108,1,0,1,,,,
06/19/2015,15:45:00,20.79958,1,0,1,,,,
06/19/2015,16:00:00,20.90269,1,0,1,,,,
06/19/2015,16:15:00,21.00651,1,0,1,,,,
06/19/2015,16:30:00,21.10686,1,0,1,,,,
06/19/2015,16:45:00,21.18809,1,0,1,,,,
06/19/2015,17:00:00,21.24901,1,0,1,,,,
06/19/2015,17:15:00,21.28573,1,0,1,,,,
06/19/2015,17:30:00,21.31148,1,0,1,,,,
06/19/2015,17:45:00,21.32139,1,0,1,,,,
06/19/2015,18:00:00,21.34366,1,0,1,,,,
06/19/2015,18:15:00,21.35257,1,0,1,,,,
06/19/2015,18:30:00,21.3437,1,0,1,,,,
06/19/2015,18:45:00,21.31875,1,0,1,,,,
06/19/2015,19:00:00,21.27737,1,0,1,,,,
06/19/2015,19:15:00,21.22901,1,0,1,,,,
06/19/2015,19:30:00,21.1819,1,0,1,,,,
06/19/2015,19:45:00,21.12893,1,0,1,,,,
06/19/2015,20:00:00,21.06471,1,0,1,,,,
06/19/2015,20:15:00,20.99573,1,0,1,,,,
06/19/2015,20:30:00,20.92194,1,0,1,,,,
06/19/2015,20:45:00,20.8222,1,0,1,,,,
06/19/2015,21:00:00,20.72938,1,0,1,,,,
06/19/2015,21:15:00,20.62611,1,0,1,,,,
06/19/2015,21:30:00,20.52017,1,0,1,,,,
06/19/2015,21:45:00,20.40276,1,0,1,,,,
06/19/2015,22:00:00,20.27877,1,0,1,,,,
06/19/2015,22:15:00,20.14813,1,0,1,,,,
06/19/2015,22:30:00,20.02362,1,0,1,,,,
06/19/2015,22:45:00,19.8955,1,0,1,,,,
06/19/2015,23:00:00,19.77469,1,0,1,,,,
06/19/2015,23:15:00,19.64467,1,0,1,,,,
06/19/2015,23:30:00,19.51859,1,0,1,,,,
06/19/2015,23:45:00,19.3854,1,0,1,,,,
06/20/2015,00:00:00,19.26656,1,0,1,,,,
06/20/2015,00:15:00,19.14325,1,0,1,,,,
06/20/2015,00:30:00,19.02353,1,0,1,,,,
06/20/2015,00:45:00,18.90907,1,0,1,,,,
06/20/2015,01:00:00,18.78954,1,0,1,,,,
06/20/2015,01:15:00,18.67379,1,0,1,,,,
06/20/2015,01:30:00,18.56318,1,0,1,,,,
06/20/2015,01:45:00,18.44687,1,0,1,,,,
06/20/2015,02:00:00,18.33453,1,0,1,,,,
06/20/2015,02:15:00,18.22286,1,0,1,,,,
06/20/2015,02:30:00,18.11389,1,0,1,,,,
06/20/2015,02:45:00,17.99697,1,0,1,,,,
06/20/2015,03:00:00,17.88612,1,0,1,,,,
06/20/2015,03:15:00,17.78443,1,0,1,,,,
06/20/2015,03:30:00,17.67642,1,0,1,,,,
06/20/2015,03:45:00,17.58115,1,0,1,,,,
06/20/2015,04:00:00,17.48396,1,0,1,,,,
06/20/2015,04:15:00,17.39316,1,0,1,,,,
06/20/2015,04:30:00,17.30703,1,0,1,,,,
06/20/2015,04:45:00,17.21957,1,0,1,,,,
06/20/2015,05:00:00,17.1356,1,0,1,,,,
06/20/2015,05:15:00,17.04764,1,0,1,,,,
06/20/2015,05:30:00,16.96666,1,0,1,,,,
06/20/2015,05:45:00,16.89219,1,0,1,,,,
06/20/2015,06:00:00,16.82303,1,0,1,,,,
06/20/2015,06:15:00,16.75622,1,0,1,,,,
06/20/2015,06:30:00,16.69733,1,0,1,,,,
06/20/2015,06:45:00,16.64613,1,0,1,,,,
06/20/2015,07:00:00,16.60815,1,0,1,,,,
06/20/2015,07:15:00,16.57951,1,0,1,,,,
06/20/2015,07:30:00,16.56257,1,0,1,,,,
06/20/2015,07:45:00,16.55578,1,0,1,,,,
06/20/2015,08:00:00,16.55096,1,0,1,,,,
06/20/2015,08:15:00,16.5648,1,0,1,,,,
06/20/2015,08:30:00,16.60457,1,0,1,,,,
06/20/2015,08:45:00,16.63755,1,0,1,,,,
06/20/2015,09:00:00,16.70597,1,0,1,,,,
06/20/2015,09:15:00,16.78757,1,0,1,,,,
06/20/2015,09:30:00,16.86051,1,0,1,,,,
06/20/2015,09:45:00,16.92039,1,0,1,,,,
06/20/2015,10:00:00,17.00503,1,0,1,,,,
06/20/2015,10:15:00,17.13578,1,0,1,,,,
06/20/2015,10:30:00,17.28163,1,0,1,,,,
06/20/2015,10:45:00,17.44606,1,0,1,,,,
06/20/2015,11:00:00,17.63132,1,0,1,,,,
06/20/2015,11:15:00,17.80636,1,0,1,,,,
06/20/2015,11:30:00,17.9903,1,0,1,,,,
06/20/2015,11:45:00,18.18215,1,0,1,,,,
06/20/2015,12:00:00,18.3716,1,0,1,,,,
06/20/2015,12:15:00,18.57547,1,0,1,,,,
06/20/2015,12:30:00,18.77588,1,0,1,,,,
06/20/2015,12:45:00,18.97873,1,0,1,,,,
06/20/2015,13:00:00,19.17918,1,0,1,,,,
06/20/2015,13:15:00,19.37177,1,0,1,,,,
06/20/2015,13:30:00,19.5682,1,0,1,,,,
06/20/2015,13:45:00,19.76191,1,0,1,,,,
06/20/2015,14:00:00,19.95263,1,0,1,,,,
06/20/2015,14:15:00,20.13522,1,0,1,,,,
06/20/2015,14:30:00,20.30649,1,0,1,,,,
06/20/2015,14:45:00,20.48654,1,0,1,,,,
06/20/2015,15:00:00,20.64654,1,0,1,,,,
06/20/2015,15:15:00,20.7854,1,0,1,,,,
06/20/2015,15:30:00,20.90697,1,0,1,,,,
06/20/2015,15:45:00,20.98758,1,0,1,,,,
06/20/2015,16:00:00,21.06778,1,0,1,,,,
06/20/2015,16:15:00,21.15005,1,0,1,,,,
06/20/2015,16:30:00,21.241,1,0,1,,,,
06/20/2015,16:45:00,21.31993,1,0,1,,,,
06/20/2015,17:00:00,21.37691,1,0,1,,,,
06/20/2015,17:15:00,21.42292,1,0,1,,,,
06/20/2015,17:30:00,21.46053,1,0,1,,,,
06/20/2015,17:45:00,21.4758,1,0,1,,,,
06/20/2015,18:00:00,21.4822,1,0,1,,,,
06/20/2015,18:15:00,21.46215,1,0,1,,,,
06/20/2015,18:30:00,21.42949,1,0,1,,,,
06/20/2015,18:45:00,21.37766,1,0,1,,,,
06/20/2015,19:00:00,21.32335,1,0,1,,,,
06/20/2015,19:15:00,21.25282,1,0,1,,,,
06/20/2015,19:30:00,21.19388,1,0,1,,,,
06/20/2015,19:45:00,21.11135,1,0,1,,,,
06/20/2015,20:00:00,21.01508,1,0,1,,,,
06/20/2015,20:15:00,20.91733,1,0,1,,,,
06/20/2015,20:30:00,20.81223,1,0,1,,,,
06/20/2015,20:45:00,20.70583,1,0,1,,,,
06/20/2015,21:00:00,20.58022,1,0,1,,,,
06/20/2015,21:15:00,20.44935,1,0,1,,,,
06/20/2015,21:30:00,20.32401,1,0,1,,,,
06/20/2015,21:45:00,20.19252,1,0,1,,,,
06/20/2015,22:00:00,20.06542,1,0,1,,,,
06/20/2015,22:15:00,19.93207,1,0,1,,,,
06/20/2015,22:30:00,19.80152,1,0,1,,,,
06/20/2015,22:45:00,19.67886,1,0,1,,,,
06/20/2015,23:00:00,19.55901,1,0,1,,,,
06/20/2015,23:15:00,19.43792,1,0,1,,,,
06/20/2015,23:30:00,19.32709,1,0,1,,,,
06/20/2015,23:45:00,19.2194,1,0,1,,,,
06/21/2015,00:00:00,19.11113,1,0,1,,,,
06/21/2015,00:15:00,19.0059,1,0,1,,,,
06/21/2015,00:30:00,18.91163,1,0,1,,,,
06/21/2015,00:45:00,18.80704,1,0,1,,,,
06/21/2015,01:00:00,18.70422,1,0,1,,,,
06/21/2015,01:15:00,18.60713,1,0,1,,,,
06/21/2015,01:30:00,18.51049,1,0,1,,,,
06/21/2015,01:45:00,18.42881,1,0,1,,,,
06/21/2015,02:00:00,18.33876,1,0,1,,,,
06/21/2015,02:15:00,18.25801,1,0,1,,,,
06/21/2015,02:30:00,18.17607,1,0,1,,,,
06/21/2015,02:45:00,18.08738,1,0,1,,,,
06/21/2015,03:00:00,17.99701,1,0,1,,,,
06/21/2015,03:15:00,17.90358,1,0,1,,,,
06/21/2015,03:30:00,17.80973,1,0,1,,,,
06/21/2015,03:45:00,17.72303,1,0,1,,,,
06/21/2015,04:00:00,17.63232,1,0,1,,,,
06/21/2015,04:15:00,17.53902,1,0,1,,,,
06/21/2015,04:30:00,17.44359,1,0,1,,,,
06/21/2015,04:45:00,17.35015,1,0,1,,,,
06/21/2015,05:00:00,17.25806,1,0,1,,,,
06/21/2015,05:15:00,17.17972,1,0,1,,,,
06/21/2015,05:30:00,17.09654,1,0,1,,,,
06/21/2015,05:45:00,17.01852,1,0,1,,,,
06/21/2015,06:00:00,16.93822,1,0,1,,,,
06/21/2015,06:15:00,16.86066,1,0,1,,,,
06/21/2015,06:30:00,16.79294,1,0,1,,,,
06/21/2015,06:45:00,16.73146,1,0,1,,,,
06/21/2015,07:00:00,16.67455,1,0,1,,,,
06/21/2015,07:15:00,16.62634,1,0,1,,,,
06/21/2015,07:30:00,16.58957,1,0,1,,,,
06/21/2015,07:45:00,16.56592,1,0,1,,,,
06/21/2015,08:00:00,16.54062,1,0,1,,,,
06/21/2015,08:15:00,16.52902,1,0,1,,,,
06/21/2015,08:30:00,16.53243,1,0,1,,,,
06/21/2015,08:45:00,16.55785,1,0,1,,,,
06/21/2015,09:00:00,16.60693,1,0,1,,,,
06/21/2015,09:15:00,16.69468,1,0,1,,,,
06/21/2015,09:30:00,16.78891,1,0,1,,,,
06/21/2015,09:45:00,16.88833,1,0,1,,,,
06/21/2015,10:00:00,16.99125,1,0,1,,,,
06/21/2015,10:15:00,17.0673,1,0,1,,,,
06/21/2015,10:30:00,17.11569,1,0,1,,,,
06/21/2015,10:45:00,17.18366,1,0,1,,,,
06/21/2015,11:00:00,17.28405,1,0,1,,,,
06/21/2015,11:15:00,17.37586,1,0,1,,,,
06/21/2015,11:30:00,17.48675,1,0,1,,,,
06/21/2015,11:45:00,17.65964,1,0,1,,,,
06/21/2015,12:00:00,17.8201,1,0,1,,,,
06/21/2015,12:15:00,17.91195,1,0,1,,,,
06/21/2015,12:30:00,17.96819,1,0,1,,,,
06/21/2015,12:45:00,17.9866,1,0,1,,,,
06/21/2015,13:00:00,18.03514,1,0,1,,,,
06/21/2015,13:15:00,18.12582,1,0,1,,,,
06/21/2015,13:30:00,18.22143,1,0,1,,,,
06/21/2015,13:45:00,18.32712,1,0,1,,,,
06/21/2015,14:00:00,18.50592,1,0,1,,,,
06/21/2015,14:15:00,18.66562,1,0,1,,,,
06/21/2015,14:30:00,18.77802,1,0,1,,,,
06/21/2015,14:45:00,18.86793,1,0,1,,,,
06/21/2015,15:00:00,18.95568,1,0,1,,,,
06/21/2015,15:15:00,19.04553,1,0,1,,,,
06/21/2015,15:30:00,19.18065,1,0,1,,,,
06/21/2015,15:45:00,19.32438,1,0,1,,,,
06/21/2015,16:00:00,19.41049,1,0,1,,,,
06/21/2015,16:15:00,19.49471,1,0,1,,,,
06/21/2015,16:30:00,19.56339,1,0,1,,,,
06/21/2015,16:45:00,19.60601,1,0,1,,,,
06/21/2015,17:00:00,19.60986,1,0,1,,,,
06/21/2015,17:15:00,19.61182,1,0,1,,,,
06/21/2015,17:30:00,19.61332,1,0,1,,,,
06/21/2015,17:45:00,19.61153,1,0,1,,,,
06/21/2015,18:00:00,19.61338,1,0,1,,,,
06/21/2015,18:15:00,19.61483,1,0,1,,,,
06/21/2015,18:30:00,19.60855,1,0,1,,,,
06/21/2015,18:45:00,19.59791,1,0,1,,,,
06/21/2015,19:00:00,19.57328,1,0,1,,,,
06/21/2015,19:15:00,19.54467,1,0,1,,,,
06/21/2015,19:30:00,19.51165,1,0,1,,,,
06/21/2015,19:45:00,19.47262,1,0,1,,,,
06/21/2015,20:00:00,19.42166,1,0,1,,,,
06/21/2015,20:15:00,19.35425,1,0,1,,,,
06/21/2015,20:30:00,19.28356,1,0,1,,,,
06/21/2015,20:45:00,19.21037,1,0,1,,,,
06/21/2015,21:00:00,19.13126,1,0,1,,,,
06/21/2015,21:15:00,19.05386,1,0,1,,,,
06/21/2015,21:30:00,18.97391,1,0,1,,,,
06/21/2015,21:45:00,18.89277,1,0,1,,,,
06/21/2015,22:00:00,18.81288,1,0,1,,,,
06/21/2015,22:15:00,18.72635,1,0,1,,,,
06/21/2015,22:30:00,18.63945,1,0,1,,,,
06/21/2015,22:45:00,18.54945,1,0,1,,,,
06/21/2015,23:00:00,18.46064,1,0,1,,,,
06/21/2015,23:15:00,18.36516,1,0,1,,,,
06/21/2015,23:30:00,18.27469,1,0,1,,,,
06/21/2015,23:45:00,18.18261,1,0,1,,,,
06/22/2015,00:00:00,18.08771,1,0,1,,,,
06/22/2015,00:15:00,17.99591,1,0,1,,,,
06/22/2015,00:30:00,17.91157,1,0,1,,,,
06/22/2015,00:45:00,17.82544,1,0,1,,,,
06/22/2015,01:00:00,17.74089,1,0,1,,,,
06/22/2015,01:15:00,17.65454,1,0,1,,,,
06/22/2015,01:30:00,17.56962,1,0,1,,,,
06/22/2015,01:45:00,17.48495,1,0,1,,,,
06/22/2015,02:00:00,17.40583,1,0,1,,,,
06/22/2015,02:15:00,17.32814,1,0,1,,,,
06/22/2015,02:30:00,17.25253,1,0,1,,,,
06/22/2015,02:45:00,17.17804,1,0,1,,,,
06/22/2015,03:00:00,17.09894,1,0,1,,,,
06/22/2015,03:15:00,17.03037,1,0,1,,,,
06/22/2015,03:30:00,16.96018,1,0,1,,,,
06/22/2015,03:45:00,16.89127,1,0,1,,,,
06/22/2015,04:00:00,16.81863,1,0,1,,,,
06/22/2015,04:15:00,16.7467,1,0,1,,,,
06/22/2015,04:30:00,16.68246,1,0,1,,,,
06/22/2015,04:45:00,16.61759,1,0,1,,,,
06/22/2015,05:00:00,16.55335,1,0,1,,,,
06/22/2015,05:15:00,16.484,1,0,1,,,,
06/22/2015,05:30:00,16.42186,1,0,1,,,,
06/22/2015,05:45:00,16.35734,1,0,1,,,,
06/22/2015,06:00:00,16.29818,1,0,1,,,,
06/22/2015,06:15:00,16.24211,1,0,1,,,,
06/22/2015,06:30:00,16.19681,1,0,1,,,,
06/22/2015,06:45:00,16.16054,1,0,1,,,,
06/22/2015,07:00:00,16.12925,1,0,1,,,,
06/22/2015,07:15:00,16.11178,1,0,1,,,,
06/22/2015,07:30:00,16.10634,1,0,1,,,,
06/22/2015,07:45:00,16.11315,1,0,1,,,,
06/22/2015,08:00:00,16.13105,1,0,1,,,,
06/22/2015,08:15:00,16.16247,1,0,1,,,,
06/22/2015,08:30:00,16.20362,1,0,1,,,,
06/22/2015,08:45:00,16.25787,1,0,1,,,,
06/22/2015,09:00:00,16.33385,1,0,1,,,,
06/22/2015,09:15:00,16.43007,1,0,1,,,,
06/22/2015,09:30:00,16.54869,1,0,1,,,,
06/22/2015,09:45:00,16.68802,1,0,1,,,,
06/22/2015,10:00:00,16.83146,1,0,1,,,,
06/22/2015,10:15:00,16.98581,1,0,1,,,,
06/22/2015,10:30:00,17.14464,1,0,1,,,,
06/22/2015,10:45:00,17.3213,1,0,1,,,,
06/22/2015,11:00:00,17.51159,1,0,1,,,,
06/22/2015,11:15:00,17.69,1,0,1,,,,
06/22/2015,11:30:00,17.88492,1,0,1,,,,
06/22/2015,11:45:00,18.10593,1,0,1,,,,
06/22/2015,12:00:00,18.32151,1,0,1,,,,
06/22/2015,12:15:00,18.53083,1,0,1,,,,
06/22/2015,12:30:00,18.7303,1,0,1,,,,
06/22/2015,12:45:00,18.93455,1,0,1,,,,
06/22/2015,13:00:00,19.12941,1,0,1,,,,
06/22/2015,13:15:00,19.33188,1,0,1,,,,
06/22/2015,13:30:00,19.52293,1,0,1,,,,
06/22/2015,13:45:00,19.71364,1,0,1,,,,
06/22/2015,14:00:00,19.85955,1,0,1,,,,
06/22/2015,14:15:00,20.00569,1,0,1,,,,
06/22/2015,14:30:00,20.1304,1,0,1,,,,
06/22/2015,14:45:00,20.24417,1,0,1,,,,
06/22/2015,15:00:00,20.34933,1,0,1,,,,
06/22/2015,15:15:00,20.44967,1,0,1,,,,
06/22/2015,15:30:00,20.5532,1,0,1,,,,
06/22/2015,15:45:00,20.65558,1,0,1,,,,
06/22/2015,16:00:00,20.74971,1,0,1,,,,
06/22/2015,16:15:00,20.8161,1,0,1,,,,
06/22/2015,16:30:00,20.87096,1,0,1,,,,
06/22/2015,16:45:00,20.93967,1,0,1,,,,
06/22/2015,17:00:00,20.97822,1,0,1,,,,
06/22/2015,17:15:00,21.03096,1,0,1,,,,
06/22/2015,17:30:00,21.05352,1,0,1,,,,
06/22/2015,17:45:00,21.08837,1,0,1,,,,
06/22/2015,18:00:00,21.10213,1,0,1,,,,
06/22/2015,18:15:00,21.11917,1,0,1,,,,
06/22/2015,18:30:00,21.11189,1,0,1,,,,
06/22/2015,18:45:00,21.09342,1,0,1,,,,
06/22/2015,19:00:00,21.06903,1,0,1,,,,
06/22/2015,19:15:00,21.03954,1,0,1,,,,
06/22/2015,19:30:00,21.00613,1,0,1,,,,
06/22/2015,19:45:00,20.96228,1,0,1,,,,
06/22/2015,20:00:00,20.91717,1,0,1,,,,
06/22/2015,20:15:00,20.86586,1,0,1,,,,
06/22/2015,20:30:00,20.79287,1,0,1,,,,
06/22/2015,20:45:00,20.72184,1,0,1,,,,
06/22/2015,21:00:00,20.64921,1,0,1,,,,
06/22/2015,21:15:00,20.56657,1,0,1,,,,
06/22/2015,21:30:00,20.48158,1,0,1,,,,
06/22/2015,21:45:00,20.40176,1,0,1,,,,
06/22/2015,22:00:00,20.31356,1,0,1,,,,
06/22/2015,22:15:00,20.20919,1,0,1,,,,
06/22/2015,22:30:00,20.10478,1,0,1,,,,
06/22/2015,22:45:00,19.99669,1,0,1,,,,
06/22/2015,23:00:00,19.88868,1,0,1,,,,
06/22/2015,23:15:00,19.78017,1,0,1,,,,
06/22/2015,23:30:00,19.67227,1,0,1,,,,
06/22/2015,23:45:00,19.56302,1,0,1,,,,
06/23/2015,00:00:00,19.4514,1,0,1,,,,
06/23/2015,00:15:00,19.34565,1,0,1,,,,
06/23/2015,00:30:00,19.24087,1,0,1,,,,
06/23/2015,00:45:00,19.13416,1,0,1,,,,
06/23/2015,01:00:00,19.03779,1,0,1,,,,
06/23/2015,01:15:00,18.94213,1,0,1,,,,
06/23/2015,01:30:00,18.85307,1,0,1,,,,
06/23/2015,01:45:00,18.76408,1,0,1,,,,
06/23/2015,02:00:00,18.67882,1,0,1,,,,
06/23/2015,02:15:00,18.59306,1,0,1,,,,
06/23/2015,02:30:00,18.50752,1,0,1,,,,
06/23/2015,02:45:00,18.42693,1,0,1,,,,
06/23/2015,03:00:00,18.3378,1,0,1,,,,
06/23/2015,03:15:00,18.24743,1,0,1,,,,
06/23/2015,03:30:00,18.16848,1,0,1,,,,
06/23/2015,03:45:00,18.0827,1,0,1,,,,
06/23/2015,04:00:00,17.99033,1,0,1,,,,
06/23/2015,04:15:00,17.9075,1,0,1,,,,
06/23/2015,04:30:00,17.80703,1,0,1,,,,
06/23/2015,04:45:00,17.71652,1,0,1,,,,
06/23/2015,05:00:00,17.62972,1,0,1,,,,
06/23/2015,05:15:00,17.54697,1,0,1,,,,
06/23/2015,05:30:00,17.46677,1,0,1,,,,
06/23/2015,05:45:00,17.39145,1,0,1,,,,
06/23/2015,06:00:00,17.31367,1,0,1,,,,
06/23/2015,06:15:00,17.23557,1,0,1,,,,
06/23/2015,06:30:00,17.17112,1,0,1,,,,
06/23/2015,06:45:00,17.12081,1,0,1,,,,
06/23/2015,07:00:00,17.07901,1,0,1,,,,
06/23/2015,07:15:00,17.03648,1,0,1,,,,
06/23/2015,07:30:00,17.0151,1,0,1,,,,
06/23/2015,07:45:00,16.9956,1,0,1,,,,
06/23/2015,08:00:00,16.98325,1,0,1,,,,
06/23/2015,08:15:00,16.99052,1,0,1,,,,
06/23/2015,08:30:00,17.02032,1,0,1,,,,
06/23/2015,08:45:00,17.05614,1,0,1,,,,
06/23/2015,09:00:00,17.09681,1,0,1,,,,
06/23/2015,09:15:00,17.11664,1,0,1,,,,
06/23/2015,09:30:00,17.17043,1,0,1,,,,
06/23/2015,09:45:00,17.26814,1,0,1,,,,
06/23/2015,10:00:00,17.34434,1,0,1,,,,
06/23/2015,10:15:00,17.43496,1,0,1,,,,
06/23/2015,10:30:00,17.54721,1,0,1,,,,
06/23/2015,10:45:00,17.66309,1,0,1,,,,
06/23/2015,11:00:00,17.79271,1,0,1,,,,
06/23/2015,11:15:00,17.92439,1,0,1,,,,
06/23/2015,11:30:00,18.0731,1,0,1,,,,
06/23/2015,11:45:00,18.22014,1,0,1,,,,
06/23/2015,12:00:00,18.36267,1,0,1,,,,
06/23/2015,12:15:00,18.53681,1,0,1,,,,
06/23/2015,12:30:00,18.69633,1,0,1,,,,
06/23/2015,12:45:00,18.85217,1,0,1,,,,
06/23/2015,13:00:00,19.04294,1,0,1,,,,
06/23/2015,13:15:00,19.21774,1,0,1,,,,
06/23/2015,13:30:00,19.37034,1,0,1,,,,
06/23/2015,13:45:00,19.53997,1,0,1,,,,
06/23/2015,14:00:00,19.72388,1,0,1,,,,
06/23/2015,14:15:00,19.86909,1,0,1,,,,
06/23/2015,14:30:00,20.01393,1,0,1,,,,
06/23/2015,14:45:00,20.16593,1,0,1,,,,
06/23/2015,15:00:00,20.3003,1,0,1,,,,
06/23/2015,15:15:00,20.46765,1,0,1,,,,
06/23/2015,15:30:00,20.60249,1,0,1,,,,
06/23/2015,15:45:00,20.74677,1,0,1,,,,
06/23/2015,16:00:00,20.86444,1,0,1,,,,
06/23/2015,16:15:00,20.97397,1,0,1,,,,
06/23/2015,16:30:00,21.07739,1,0,1,,,,
06/23/2015,16:45:00,21.16757,1,0,1,,,,
06/23/2015,17:00:00,21.24128,1,0,1,,,,
06/23/2015,17:15:00,21.29687,1,0,1,,,,
06/23/2015,17:30:00,21.33799,1,0,1,,,,
06/23/2015,17:45:00,21.36701,1,0,1,,,,
06/23/2015,18:00:00,21.40088,1,0,1,,,,
06/23/2015,18:15:00,21.433,1,0,1,,,,
06/23/2015,18:30:00,21.44339,1,0,1,,,,
06/23/2015,18:45:00,21.43306,1,0,1,,,,
06/23/2015,19:00:00,21.40866,1,0,1,,,,
06/23/2015,19:15:00,21.37606,1,0,1,,,,
06/23/2015,19:30:00,21.33821,1,0,1,,,,
06/23/2015,19:45:00,21.29223,1,0,1,,,,
06/23/2015,20:00:00,21.23572,1,0,1,,,,
06/23/2015,20:15:00,21.17134,1,0,1,,,,
06/23/2015,20:30:00,21.09048,1,0,1,,,,
06/23/2015,20:45:00,21.00229,1,0,1,,,,
06/23/2015,21:00:00,20.90658,1,0,1,,,,
06/23/2015,21:15:00,20.80455,1,0,1,,,,
06/23/2015,21:30:00,20.69409,1,0,1,,,,
06/23/2015,21:45:00,20.57484,1,0,1,,,,
06/23/2015,22:00:00,20.4523,1,0,1,,,,
06/23/2015,22:15:00,20.32937,1,0,1,,,,
06/23/2015,22:30:00,20.20122,1,0,1,,,,
06/23/2015,22:45:00,20.06375,1,0,1,,,,
06/23/2015,23:00:00,19.92449,1,0,1,,,,
06/23/2015,23:15:00,19.78719,1,0,1,,,,
06/23/2015,23:30:00,19.66726,1,0,1,,,,
06/23/2015,23:45:00,19.54949,1,0,1,,,,
06/24/2015,00:00:00,19.43606,1,0,1,,,,
06/24/2015,00:15:00,19.32072,1,0,1,,,,
06/24/2015,00:30:00,19.22346,1,0,1,,,,
06/24/2015,00:45:00,19.12489,1,0,1,,,,
06/24/2015,01:00:00,19.02217,1,0,1,,,,
06/24/2015,01:15:00,18.91855,1,0,1,,,,
06/24/2015,01:30:00,18.82198,1,0,1,,,,
06/24/2015,01:45:00,18.72456,1,0,1,,,,
06/24/2015,02:00:00,18.62503,1,0,1,,,,
06/24/2015,02:15:00,18.53241,1,0,1,,,,
06/24/2015,02:30:00,18.43622,1,0,1,,,,
06/24/2015,02:45:00,18.34316,1,0,1,,,,
06/24/2015,03:00:00,18.2594,1,0,1,,,,
06/24/2015,03:15:00,18.17116,1,0,1,,,,
06/24/2015,03:30:00,18.09055,1,0,1,,,,
06/24/2015,03:45:00,18.00793,1,0,1,,,,
06/24/2015,04:00:00,17.93125,1,0,1,,,,
06/24/2015,04:15:00,17.84373,1,0,1,,,,
06/24/2015,04:30:00,17.78277,1,0,1,,,,
06/24/2015,04:45:00,17.7139,1,0,1,,,,
06/24/2015,05:00:00,17.64368,1,0,1,,,,
06/24/2015,05:15:00,17.57309,1,0,1,,,,
06/24/2015,05:30:00,17.50871,1,0,1,,,,
06/24/2015,05:45:00,17.44683,1,0,1,,,,
06/24/2015,06:00:00,17.3926,1,0,1,,,,
06/24/2015,06:15:00,17.33909,1,0,1,,,,
06/24/2015,06:30:00,17.29619,1,0,1,,,,
06/24/2015,06:45:00,17.25003,1,0,1,,,,
06/24/2015,07:00:00,17.20185,1,0,1,,,,
06/24/2015,07:15:00,17.15351,1,0,1,,,,
06/24/2015,07:30:00,17.10606,1,0,1,,,,
06/24/2015,07:45:00,17.07782,1,0,1,,,,
06/24/2015,08:00:00,17.07289,1,0,1,,,,
06/24/2015,08:15:00,17.09048,1,0,1,,,,
06/24/2015,08:30:00,17.12883,1,0,1,,,,
06/24/2015,08:45:00,17.16158,1,0,1,,,,
06/24/2015,09:00:00,17.21447,1,0,1,,,,
06/24/2015,09:15:00,17.29204,1,0,1,,,,
06/24/2015,09:30:00,17.36898,1,0,1,,,,
06/24/2015,09:45:00,17.43954,1,0,1,,,,
06/24/2015,10:00:00,17.53396,1,0,1,,,,
06/24/2015,10:15:00,17.6596,1,0,1,,,,
06/24/2015,10:30:00,17.80872,1,0,1,,,,
06/24/2015,10:45:00,17.96947,1,0,1,,,,
06/24/2015,11:00:00,18.13259,1,0,1,,,,
06/24/2015,11:15:00,18.29598,1,0,1,,,,
06/24/2015,11:30:00,18.45334,1,0,1,,,,
06/24/2015,11:45:00,18.62267,1,0,1,,,,
06/24/2015,12:00:00,18.81517,1,0,1,,,,
06/24/2015,12:15:00,19.01737,1,0,1,,,,
06/24/2015,12:30:00,19.23117,1,0,1,,,,
06/24/2015,12:45:00,19.43257,1,0,1,,,,